星链-32807 (STARLINK-32807)

导读

STARLINK-32807是美国太空探索技术公司SpaceX星链星座的一员,于2025年1月27日发射升空。星链计划旨在构建全球卫星互联网星座,为全球提供低延迟、高速率的宽带互联网服务,该卫星入轨后将进一步扩充星链星座的组网规模,助力全球网络覆盖的完善。

基本信息
目录编号:
62845
目录名称:
STARLINK-32807
国际标识:
2025-019S
轨道中心:
EARTH
卫星名称:
星链-32807
卫星全名:
星链-32807 (STARLINK-32807)
卫星状态:
在轨 (已飞行585 天)
发射日期:
2025-01-27 UTC
国别 :
美国 (US)
星等 :
--
轨道信息
数据来源 国际轨道数据 AOE轨道数据
星历时间 2026-09-04T02:45:05+0800
16小时前
查看轨道信息
2026-09-03T23:00:00+0800
20小时前
查看轨道信息
半长轴 6861.129km 6861.117km
偏心率 0.0001275 0.000139
轨道倾角 42.999° 43.000°
近地点辐角 264.652° 256.091°
升交点赤经 155.774° 156.658°
平近点角 95.419° 323.367°
近地点 482.117km 482.026km
远地点 483.867km 483.934km
周期 94.266分钟 94.265分钟
每日圈数 15.275993 15.276034
详细信息
固有亮度:
5
最大亮度:
2.5
卫星平台:
Starlink V1.0
覆盖范围:
全球
运营商:
太空探索技术公司
运营商所在国:
美国
制造商(研发单位):
太空探索技术公司
制造商所在国:
美国
使用方式:
暂无
卫星简介
Starlink 计划是 SpaceX 推出的全球卫星互联网项目,通过发射低轨道卫星,为全球尤其是偏远地区提供高速、低延迟的互联网服务。自 2019 年起,Starlink 已部署数千颗卫星,旨在缩小全球数字鸿沟,推动互联网普及。该项目还为军事、航空等行业提供通信支持,带来广泛经济效益。
2D轨道图
3D轨道图
轨道高度分析图
轨道倾角分析图
轨道综合分析图
查看轨道综合分析图
交会数据列表
事件ID 空间交会对象 最接近时刻(TCA) 交会距离 交会风险概率(CRP) 交会风险指数(CRI) 操作
CDM_260827-181605-954906-284523
2026-08-27T
18:16:07+0000
0.328 km
远距离
3.346099E-4 高风险 0.85
CDM_260906-073205-801006-284521
2026-09-06T
07:32:05+0000
0.232 km
中距离
2.910186E-4 高风险 0.84
CDM_260906-125205-954906-284521
2026-09-06T
12:52:28+0000
0.703 km
远距离
5.542704E-5 中风险 0.7
CDM_260906-101205-930306-284521
2026-09-06T
10:12:50+0000
1.072 km
极远距离
1.624137E-5 中风险 0.59
CDM_260906-083805-930306-284521
2026-09-06T
08:38:41+0000
1.700 km
极远距离
3.494388E-6 低风险 0.46
CDM_260830-215706-265706-284522
2026-08-30T
21:57:36+0000
1.998 km
极远距离
2.752738E-6 低风险 0.44
CDM_260906-095305-801006-284521
2026-09-06T
09:53:19+0000
1.437 km
极远距离
1.720729E-6 低风险 0.4
CDM_260906-081905-801006-284521
2026-09-06T
08:19:09+0000
1.452 km
极远距离
1.66972E-6 低风险 0.39
CDM_260827-195005-954906-284523
2026-08-27T
19:50:16+0000
2.175 km
极远距离
1.588149E-6 低风险 0.39
CDM_260904-153305-363906-284521
2026-09-04T
15:33:36+0000
2.883 km
极远距离
6.954635E-7 极低风险 0.32